Location: Holyhead Bay
(53.3667°N, 4.6667°W)
Time: 05:38:31
(UTC+00:00)

Cosmos 2221 - Pass Details

Date: 24 November 2020
Orbit: 593 x 615 km, 82.5° (Epoch: 23 January)

Event Time Altitude Azimuth Distance (km) Brightness Sun altitude
Rises 18:00:35 0° 208° (SSW) 2,864 6.6 -15.8°
Reaches altitude 10° 18:02:53 10° 215° (SW) 1,961 5.8 -16.1°
Maximum altitude 18:07:02 43° 288° (WNW) 858 3.7 -16.7°
Drops below altitude 10° 18:11:11 10° 0° (N) 1,963 5.0 -17.3°
Sets 18:13:29 0° 8° (N) 2,867 5.8 -17.7°
Enters shadow 18:13:33 - 8° (N) 2,888 5.8 -17.7°
